Flag for U.S.A. Weather past 2 weeks in Santa Clara, California, U.S.A.

Now
57 °F

Overcast.


Feels Like: 57 °F
Forecast: 53 / 74 °F
Wind: 3 mph from North

Location: San Jose International Airport

Current Time: May 27, 2015 at 11:44:54 PM

Latest Report: May 27, 2015 at 11:02 PM


Visibility: 10 mi

Pressure: 30.04 "Hg

Humidity: 82%

Dew point: 52 °F

Location of Santa ClaraLocation

Historic Weather in Santa Clara — Graph

°F

Santa Clara temperature yesterday

Maximum temperature yesterday: 68 °F (at 1:53 PM)
Minimum temperature yesterday: 57 °F (at 1:53 AM)
Average temperature yesterday: 61 °F

Past Weeks' High & Low Weather Summary

 TemperatureHumidityPressure
High70 °F (May 27, 12:53 PM)100% (May 14, 4:53 PM)30.13 "Hg (May 14, 4:53 PM)
Low48 °F (May 13, 5:53 AM)43% (May 13, 11:53 AM)29.80 "Hg (May 14, 5:53 PM)
Average59 °F67%29.99 "Hg
* Reported May 12 10:53 PM — May 27 10:53 PM, Santa Clara, Weather by CustomWeather, © 2015

Note: Actual official high and low records may vary slightly from our data, if they occured in-between our weather recording intervals... More about our weather records

Advertising

Santa Clara weather history for previous 24 hours

 ConditionsComfort  
Time TempWeatherWind HumidityBarometerVisibility
10:53 PM
Wed, May 27
57 °FOvercast.5 mph81%30.03 "Hg10 mi
9:53 PM57 °FPassing clouds.7 mph81%30.03 "Hg10 mi
8:53 PM57 °FScattered clouds.7 mph81%30.02 "Hg10 mi
7:53 PM59 °FPassing clouds.12 mph75%30.01 "Hg10 mi
6:53 PM61 °FPassing clouds.14 mph70%30.00 "Hg10 mi
5:53 PM63 °FPassing clouds.17 mph65%30.01 "Hg10 mi
4:53 PM65 °FPassing clouds.22 mph61%30.00 "Hg10 mi
3:53 PM68 °FPassing clouds.16 mph57%29.99 "Hg10 mi
2:53 PM68 °FPassing clouds.16 mph59%29.99 "Hg10 mi
1:53 PM70 °FPassing clouds.15 mph57%29.99 "Hg10 mi
12:53 PM70 °FPassing clouds.9 mph51%29.99 "Hg10 mi
11:53 AM68 °FPassing clouds.No wind49%30.00 "Hg10 mi
10:53 AM66 °FPassing clouds.3 mph52%30.01 "Hg10 mi
9:53 AM62 °FPassing clouds.3 mph60%30.02 "Hg10 mi
8:53 AM58 °FPartly sunny.8 mph70%30.02 "Hg10 mi
7:53 AM59 °FMostly cloudy.8 mph67%30.01 "Hg10 mi
6:53 AM58 °FMostly cloudy.5 mph70%30.01 "Hg10 mi
5:53 AM58 °FMostly cloudy.5 mph70%30.00 "Hg10 mi
4:53 AM58 °FOvercast.5 mph72%29.99 "Hg10 mi
3:53 AM58 °FOvercast.3 mph72%29.99 "Hg10 mi
2:53 AM58 °FOvercast.3 mph72%29.99 "Hg10 mi
1:53 AM58 °FOvercast.No wind75%30.00 "Hg10 mi
12:53 AM58 °FOvercast.6 mph75%30.01 "Hg10 mi
11:53 PM
Tue, May 26
58 °FPassing clouds.6 mph75%30.01 "Hg10 mi
Weather by CustomWeather, © 2015

See weather overviewHow to use our weather pages